Location: Dampvalley
(47.9094°N, 6.1967°E)
Time: 15:09:21
(UTC+00:00)

AO-109 - Pass Details

Date: 06 December 2021
Orbit: 479 x 515 km, 60.7° (Epoch: 26 January)

Event Time Altitude Azimuth Distance (km) Brightness Sun altitude
Exits shadow 05:36:05 22° 250° (WSW) 1,077 ? -14.9°
Maximum altitude 05:36:35 23° 237° (WSW) 1,055 ? -14.8°
Drops below altitude 10° 05:39:33 10° 183° (S) 1,649 ? -14.4°
Sets 05:41:58 0° 169° (S) 2,525 ? -14.0°
